Location: Altamira
(10.5079°N, 66.8544°W)
Time: 17:13:16
(UTC+00:00)

BREEZE-M (TANK) - Pass Details

Date: 13 December 2025
Orbit: 297 x 16960 km, 49.5° (Epoch: 14 January)

Event Time Altitude Azimuth Distance (km) Brightness Sun altitude
Rises 23:15:38 0° 232° (SW) 5,799 9.2 -16.4°
Reaches altitude 10° 23:21:35 10° 243° (WSW) 3,124 7.6 -17.7°
Maximum altitude 23:26:22 23° 295° (WNW) 1,267 4.8 -18.8°
Enters shadow 23:28:22 13° 346° (NNW) 1,343 4.4 -19.3°
